Location: Ostrava
(49.8330°N, 18.2830°E)
Time: 07:11:13
(UTC+02:00)

NOAA 19 - Visible Passes

Search period start: 23 October 2014 00:00
Search period end: 01 November 2014 23:00
Orbit: 842 x 864 km, 99.0° (Epoch: 22 October)

Date Brightness Start Highest point End Pass type
(mag) Time Alt. Az. Time Alt. Az. Time Alt. Az.
23 Oct 7.0 03:35:20 10° NNE 03:37:23 24° N 03:37:23 24° N visible
23 Oct 7.1 05:17:39 10° NNW 05:19:26 14° NW 05:19:26 14° NW visible
24 Oct 7.2 03:24:13 10° NNE 03:26:03 22° NNE 03:26:03 22° NNE visible
24 Oct 7.0 05:06:11 10° NNW 05:08:06 16° NNW 05:08:06 16° NNW visible
25 Oct 7.4 03:13:08 10° NNE 03:14:42 20° NNE 03:14:42 20° NNE visible
25 Oct 7.0 04:54:49 10° N 04:56:45 17° NNW 04:56:45 17° NNW visible
26 Oct 7.5 02:02:04 10° NNE 02:03:22 18° NNE 02:03:22 18° NNE visible
26 Oct 7.0 03:43:30 10° N 03:45:25 18° NNW 03:45:25 18° NNW visible
27 Oct 7.7 01:51:02 10° NNE 01:52:02 16° NNE 01:52:02 16° NNE visible
27 Oct 7.0 03:32:14 10° N 03:34:04 19° NNW 03:34:04 19° NNW visible
28 Oct 7.9 01:40:01 10° NNE 01:40:41 13° NNE 01:40:41 13° NNE visible
28 Oct 7.0 03:20:59 10° N 03:22:44 19° N 03:22:44 19° N visible
29 Oct 8.0 01:29:03 10° NNE 01:29:20 11° NNE 01:29:20 11° NNE visible
29 Oct 7.1 03:09:46 10° N 03:11:23 19° N 03:11:23 19° N visible
30 Oct 7.2 02:58:35 10° N 03:00:03 19° N 03:00:03 19° N visible
31 Oct 7.3 02:47:25 10° N 02:48:42 18° N 02:48:42 18° N visible
31 Oct 7.3 04:30:13 10° NNW 04:30:45 11° NNW 04:30:45 11° NNW visible
01 Nov 7.5 02:36:16 10° NNE 02:37:22 16° N 02:37:22 16° N visible
01 Nov 7.3 04:18:36 10° NNW 04:19:24 12° NNW 04:19:24 12° NNW visible
